Probability
0 0 0 0 0 0 0 0 0 0 0 0 0 0 0 0 0 0 0 0 0 0 0 0 0 0 0 0 0 0 0 0 0 0 0 0 0 0 0 0 0 0 0 0
0 0 0 0 0 0 0 0 0 0 0 0 0 0 0 0 0 0 0 0 0 0 0 0 0 0 0 0 0 0 0 0 0 0 0 0 0 0 0 0 0 0 0 0
0 0 0 0 0 0 0 0 0 0 0 0 0 0 0 0 0 0 0 0 0 0 0 0 0 0 0 0 0 0 0 0 0 0 0 0 0 0 0 0 0 0 0 0
0 0 0 0 0 0 0 0 0 0 0 0 0 0 0 0 0 0 0 0 0 0 0 0 0 0 0 0 0 0 0 0 0 0 0 0 0 0 0 0 0 0 0 0
0 0 0 0 0 0 0 0 0 0 0 0 0 0 0 0 0 0 0 0 0 0 0 0 0 0 0 0 0 0 0 0 0 0 0 0 0 0 0 0 0 0 0 0
0 0 0 0 0 0 0 0 0 0 0 0 0 0 0 0 0 0 0 0 0 0 0 0 0 0 0 0 0 0 0 0 0 0 0 0 0 0 0 0 0 0 0 0
0 0 0 0 0 0 0 0 0 0 0 0 0 0 0 0 0 0 0 0 0 0 0 0 0 0 0 0 0 0 0 0 0 0 0 0 0 0 0 0 0 0 0 0
0 0 0 0 0 0 0 0 0 0 0 0 0 0 0 0 0 0 0 0 0 0 0 0 0 0 0 0 0 0 0 0 0 0 0 0 0 0 0 0 0 0 0 0
0 0 0 0 0 0 0 0 0 0 0 0 0 0 0 0 0 0 0 0 0 0 0 0 0 0 0 0 0 0 0 0 0 0 0 0 0 0 0 0 0 0 0 0
0 0 0 0 0 0 0 0 0 0 0 0 0 0 0 0 0 0 0 0 0 0 0 0 0 0 0 0 0 0 0 0 0 0 0 0 0 0 0 0 0 0 0 0
0 0 0 0 0 0 0 0 0 0 0 0 0 0 0 0 0 0 0 0 0 0 0 0 0 0 0 0 0 0 0 0 0 0 0 0 0 0 0 0 0 0 0 0
0 0 0 0 0 0 0 0 0 0 0 0 0 0 0 0 0 0 0 0 0 0 0 0 0 0 0 0 0 0 0 0 0 0 0 0 0 0 0 0 0 0 0 0
0 0 0 0 0 0 0 0 0 0 0 0 0 0 0 0 0 0 0 0 0 0 0 0 0 0 0 0 0 0 0 0 0 0 0 0 0 0 0 0 0 0 0 0
0 0 0 0 0 0 0 0 0 0 0 0 0 0 0 0 0 0 0 0 0 0 0 0 0 0 0 0 0 0 0 0 0 0 0 0 0 0 0 0 0 0 0 0
0 0 0 0 0 0 0 0 0 0 0 0 0 0 0 0 0 0 0 0 0 0 0 0 0 0 0 0 0 0 0 0 0 0 0 0 0 0 0 0 0 0 0 0
0 0 0 0 0 0 0 0 0 0 0 0 0 0 0 0 0 0 0 0 0 0 0 0 0 0 0 0 0 0 0 0 0 0 0 0 0 0 0 0 0 0 0 0
0 0 0 0 0 0 0 0 0 0 0 0 0 0 0 0 0 0 0 0 0 0 0 0 0 0 0 0 0 0 0 0 0 0 0 0 0 0 0 0 0 0 0 0
0 0 0 0 0 0 0 0 0 0 0 0 0 0 0 0 0 0 0 0 0 0 0 0 0 0 0 0 0 0 0 0 0 0 0 0 0 0 0 0 0 0 0 0
0 0 0 0 0 0 0 0 0 0 0 0 0 0 0 0 0 0 0 0 0 0 0 0 0 0 0 0 0 0 0 0 0 0 0 0 0 0 0 0 0 0 0 0
0 0 0 0 0 0 0 0 0 0 0 0 0 0 0 0 0 0 0 0 0 0 0 0 0 0 0 0 0 0 0 0 0 0 0 0 0 0 0 0 0 0 0 0
0 0 0 0 0 0 0 0 0 0 0 0 0 0 0 0 0 0 0 0 0 0 0 0 0 0 0 0 0 0 0 0 0 0 0 0 0 0 0 0 0 0 0 0
0 0 0 0 0 0 0 0 0 0 0 0 0 0 0 0 0 0 0 0 0 0 0 0 0 0 0 0 0 0 0 0 0 0 0 0 0 0 0 0 0 0 0 0
0 0 0 0 0 0 0 0 0 0 0 0 0 0 0 0 0 0 0 0 0 0 0 0 0 0 0 0 0 0 0 0 0 0 0 0 0 0 0 0 0 0 0 0
0 0 0 0 0 0 0 0 0 0 0 0 0 0 0 0 0 0 0 0 0 0 0 0 0 0 0 0 0 0 0 0 0 0 0 0 0 0 0 0 0 0 0 0
0 0 0 0 0 0 0 0 0 0 0 0 0 0 0 0 0 0 0 0 0 0 0 0 0 0 0 0 0 0 0 0 0 0 0 0 0 0 0 0 0 0 0 0
0 0 0 0 0 0 0 0 0 0 0 0 0 0 0 0 0 0 0 0 0 0 0 0 0 0 0 0 0 0 0 0 0 0 0 0 0 0 0 0 0 0 0 0
0 0 0 0 0 0 0 0 0 0 0 0 0 0 0 0 0 0 0 0 0 0 0 0 0 0 0 0 0 0 0 0 0 0 0 0 0 0 0 0 0 0 0 0
Wind_Speed
9 8 5 5 7 5 5 7 7 8 8 7 9 9 8 8 8 8 7 7 6 6 5 5 4 4 4 3 2 2 2 2 1 1 1 2 2 1 1 1 0 0 1 1
7 5 4 6 7 6 7 7 8 8 7 7 8 6 7 7 8 8 8 7 7 6 5 5 5 4 3 3 2 1 1 1 1 1 1 1 1 1 1 1 1 0 0 0
6 5 5 5 4 4 2 2 4 5 6 7 7 7 8 7 8 9 9 8 7 6 5 5 4 4 3 3 2 1 1 1 1 1 1 1 1 1 1 1 1 1 1 0
4 4 5 1 3 3 2 2 3 4 6 6 7 7 6 6 8 9 10 9 7 6 6 5 4 4 3 2 2 1 1 1 1 1 1 1 0 0 0 1 1 1 1 1
3 4 4 1 3 3 3 3 3 5 6 8 9 6 3 7 9 9 9 8 7 6 5 5 4 3 2 2 2 2 2 2 2 1 1 0 0 0 0 0 1 1 1 1
2 4 4 2 5 6 4 3 4 6 7 8 8 5 5 9 11 10 9 8 7 6 5 4 5 4 2 2 2 2 2 2 2 1 1 1 1 1 0 0 0 1 1 1
4 4 3 4 6 4 3 4 6 6 6 6 6 6 8 9 9 9 8 8 7 5 4 5 4 4 3 2 3 3 3 2 2 2 1 1 1 1 0 0 0 0 1 1
3 4 3 4 3 2 4 5 5 6 6 6 6 7 8 8 9 9 9 8 7 5 5 5 4 4 3 3 4 3 3 2 2 2 2 1 1 1 1 0 0 0 1 1
3 2 2 1 2 4 4 5 6 6 6 6 6 7 8 8 8 8 8 8 6 5 5 4 4 4 4 4 4 3 3 3 2 2 2 2 1 1 1 1 0 1 1 1
4 4 4 3 3 4 5 6 6 6 6 6 6 7 8 7 7 7 7 7 6 6 5 5 5 5 4 4 4 3 3 3 2 2 2 2 2 1 1 1 1 1 1 2
5 5 5 4 4 6 6 6 6 6 6 6 6 7 7 7 7 7 7 7 6 5 5 6 6 5 4 4 3 3 3 2 2 2 2 2 2 2 2 2 2 3 2 2
4 4 5 6 5 6 6 7 7 7 7 6 5 6 7 6 6 6 6 6 6 6 6 6 6 6 5 4 3 3 2 2 2 2 2 2 2 2 4 3 4 5 4 4
4 5 6 6 5 5 6 6 6 6 6 7 6 6 6 6 6 6 6 6 6 6 6 5 5 5 5 4 3 3 2 2 2 2 2 2 2 2 2 3 4 4 4 5
3 3 4 4 5 6 6 6 6 6 6 6 6 6 6 6 6 6 6 6 6 6 5 5 5 5 5 4 4 3 3 2 2 2 2 1 2 2 2 2 2 3 4 5
3 3 4 5 5 5 5 5 6 6 6 6 6 6 6 6 7 7 7 6 6 5 5 5 5 5 5 4 4 3 3 2 2 2 2 2 2 2 2 2 2 3 3 4
5 4 4 4 5 6 6 6 6 7 7 7 7 7 7 7 7 7 6 6 5 6 6 5 5 5 4 4 4 3 2 4 3 2 2 1 1 1 2 2 2 2 3 3
3 4 5 6 7 7 7 7 6 7 7 7 7 7 7 7 7 7 6 6 5 5 6 5 5 5 4 4 3 3 2 2 4 2 2 2 2 2 2 2 2 3 3 4
4 5 5 5 6 7 7 7 6 7 7 7 7 6 6 7 7 7 7 7 6 6 5 5 5 5 4 4 3 2 2 2 2 2 2 2 2 2 2 2 2 3 3 4
4 4 5 5 5 6 6 7 7 6 6 6 6 6 6 6 7 7 6 6 6 6 5 5 6 5 4 4 4 2 2 2 2 2 2 2 2 2 2 2 2 3 3 3
5 5 5 5 5 5 6 6 6 6 5 5 5 6 6 6 6 6 6 5 4 5 5 6 5 4 4 3 4 2 2 2 2 2 2 2 2 2 2 3 3 3 3 3
5 5 6 6 6 6 6 6 5 6 6 5 5 6 6 6 6 5 5 5 5 5 5 6 4 4 3 3 3 2 2 2 2 2 2 2 2 2 3 3 3 3 3 3
5 5 6 6 6 6 6 5 5 5 6 5 5 5 5 6 5 5 5 4 5 7 6 4 4 5 5 4 2 2 2 2 2 2 2 2 2 2 3 3 3 3 3 3
5 5 5 5 6 6 6 5 5 5 5 5 6 6 6 6 5 5 5 4 5 7 6 4 5 7 6 3 2 2 2 2 2 2 2 2 3 3 3 3 3 3 4 4
5 5 5 5 5 5 5 6 5 5 5 6 5 5 5 5 4 4 4 7 8 9 5 5 7 7 6 2 2 2 2 2 2 2 3 3 3 3 3 3 3 4 4 5
4 4 4 4 4 4 5 6 5 5 5 4 5 5 4 3 4 5 5 5 7 7 5 5 7 7 5 2 2 2 2 3 3 3 3 3 3 3 3 3 3 4 4 4
4 4 4 4 4 4 4 4 4 4 4 4 4 4 4 4 4 4 4 5 6 6 5 4 4 5 3 3 3 3 3 3 3 3 3 3 4 4 4 4 5 4 4 5
3 3 3 3 3 3 3 4 4 4 4 4 5 5 5 5 4 5 5 5 4 4 4 4 4 4 3 3 3 3 3 3 3 3 3 3 3 4 4 5 4 4 5 5
Wind_Direction
275 287 285 293 297 289 266 274 276 285 289 325 334 331 338 347 354 0 360 358 356 353 353 355 356 359 1 7 26 50 76 77 60 59 72 72 62 53 53 58 71 252 214 203
278 278 281 291 300 283 277 280 279 289 297 329 325 332 342 349 352 355 348 344 344 344 345 346 344 344 347 353 5 29 62 68 55 50 57 63 58 48 48 45 52 60 41 235
277 295 281 274 308 291 287 299 290 288 307 333 340 340 337 338 345 348 342 337 336 335 331 330 331 332 331 342 10 26 38 52 66 50 44 49 87 82 51 38 47 53 27 32
285 287 249 51 21 331 276 352 339 318 327 334 329 321 320 336 343 340 341 338 334 332 329 329 331 331 334 354 18 22 18 19 41 36 21 10 59 79 38 27 11 347 342 348
265 268 269 291 4 336 284 294 4 337 337 342 337 316 341 5 348 337 335 336 332 332 330 332 335 336 348 15 24 24 4 353 354 358 334 331 352 353 339 327 344 334 319 313
254 264 271 4 341 321 265 254 25 344 332 337 339 327 339 348 338 336 341 344 343 341 343 346 349 350 359 16 17 4 345 334 338 327 310 328 326 323 306 269 306 330 329 318
253 258 277 354 330 315 270 342 348 334 328 330 327 319 323 330 335 339 342 346 348 347 350 349 350 351 355 7 357 348 341 335 339 341 344 337 333 338 343 26 22 342 336 333
241 244 271 15 3 348 331 333 323 326 325 320 321 324 326 331 335 340 342 345 349 348 350 353 354 351 351 352 347 345 345 345 345 343 350 339 343 342 339 337 42 337 341 339
248 273 2 343 329 327 323 311 318 320 322 320 320 324 328 331 334 336 338 341 344 344 345 351 354 351 344 342 342 341 346 348 346 348 349 345 336 324 320 315 300 309 311 307
262 268 290 296 312 323 321 315 316 317 318 320 319 321 324 328 332 335 337 339 340 342 344 345 348 346 342 340 340 340 342 346 347 349 350 350 343 327 321 316 310 307 300 298
262 290 302 286 311 323 320 318 320 322 323 323 320 319 321 322 326 329 332 334 336 337 337 338 339 339 343 344 340 334 337 344 347 351 346 347 346 337 321 313 307 300 294 288
274 297 291 299 314 317 313 315 319 322 325 327 321 315 317 317 320 323 326 330 334 337 336 335 336 337 341 341 335 329 331 340 341 340 340 337 338 352 5 347 345 334 323 311
285 302 293 296 307 320 316 316 318 318 316 317 320 316 314 314 317 320 324 329 331 330 330 331 332 334 338 336 329 324 324 324 325 325 325 321 323 329 338 355 359 351 345 338
301 311 296 311 316 322 317 315 315 315 317 318 319 320 319 317 320 324 326 327 327 327 328 328 328 331 334 332 328 325 325 327 324 314 309 303 306 310 314 320 330 342 351 347
325 315 298 306 312 320 323 323 324 324 327 328 327 324 324 323 321 321 321 322 324 324 325 326 327 329 332 328 327 325 325 326 323 319 314 311 310 310 314 319 322 328 333 340
317 316 311 313 317 323 327 327 322 320 323 323 323 322 321 317 315 316 318 322 321 321 322 322 321 323 326 325 324 319 323 339 338 326 322 324 319 315 316 318 321 322 323 327
315 318 320 317 318 320 320 317 312 311 314 315 316 319 319 318 317 319 322 323 317 312 312 313 315 320 322 321 317 316 324 335 341 334 330 326 320 314 313 312 315 319 320 324
288 292 295 296 303 310 314 317 315 313 311 310 313 315 316 316 315 317 319 320 316 314 314 315 317 317 319 322 318 316 321 328 331 333 335 335 331 327 324 318 318 320 323 327
314 310 311 309 309 308 310 313 315 314 312 311 313 314 314 310 309 312 315 316 311 312 320 324 324 323 320 323 324 311 314 323 330 334 336 335 338 334 328 324 323 322 322 323
325 323 321 319 319 315 310 312 316 316 315 315 312 312 313 315 316 316 316 311 306 306 312 314 315 315 319 316 316 306 316 323 323 324 326 326 327 328 328 328 326 323 322 321
317 318 318 318 318 318 315 315 316 316 318 318 313 311 312 314 315 312 310 311 318 319 315 316 317 314 310 308 313 310 313 312 311 311 312 314 317 321 323 324 322 319 318 318
308 310 312 314 316 317 320 320 316 313 316 317 315 310 309 311 315 313 305 299 312 320 320 313 312 311 313 318 316 309 304 300 299 299 299 303 306 309 312 314 313 312 313 313
303 305 308 311 312 312 315 317 316 313 312 313 311 311 310 309 311 308 312 316 318 321 320 313 314 317 324 330 318 306 300 296 293 290 292 294 295 297 299 302 304 306 307 308
304 306 306 309 309 309 315 321 320 316 310 306 304 304 305 307 308 305 301 311 320 321 318 314 320 325 332 331 317 304 297 293 289 287 288 288 290 291 291 293 296 300 300 302
302 301 301 306 309 309 312 315 316 317 317 315 317 319 315 307 303 309 311 312 317 322 321 323 325 328 329 315 304 294 290 283 282 285 283 284 286 285 286 288 290 292 294 294
303 302 302 301 299 301 306 309 312 315 317 318 323 325 321 316 312 311 312 317 318 320 320 317 319 321 314 304 297 293 290 293 297 294 286 284 282 282 282 285 288 287 288 288
303 304 305 307 310 312 310 309 310 314 317 316 315 317 320 322 321 322 321 319 320 320 317 317 318 316 311 306 302 298 295 292 290 286 284 282 280 279 280 281 282 284 285 285